TimeEST,TemperatureF,Dew PointF,Humidity,Sea Level PressureIn,VisibilityMPH,Wind Direction,Wind SpeedMPH,Gust SpeedMPH,PrecipitationIn,Events,Conditions,WindDirDegrees,DateUTC
12:54 AM,42.1,37.0,82,29.63,10.0,Calm,Calm,-,N/A,,Overcast,0,2013-02-28 05:54:00
1:54 AM,42.1,36.0,79,29.63,10.0,Calm,Calm,-,N/A,,Overcast,0,2013-02-28 06:54:00
2:54 AM,42.1,36.0,79,29.63,10.0,Calm,Calm,-,N/A,,Overcast,0,2013-02-28 07:54:00
3:54 AM,42.1,35.1,76,29.62,10.0,SW,3.5,-,N/A,,Overcast,230,2013-02-28 08:54:00
4:54 AM,42.1,36.0,79,29.62,10.0,Calm,Calm,-,0.00,Rain,Light Rain,0,2013-02-28 09:54:00
5:54 AM,44.1,34.0,68,29.63,10.0,WNW,5.8,-,0.00,,Overcast,290,2013-02-28 10:54:00
6:54 AM,43.0,35.1,74,29.63,10.0,Calm,Calm,-,N/A,,Overcast,0,2013-02-28 11:54:00
7:41 AM,42.8,37.4,81,29.64,10.0,Calm,Calm,-,0.00,Rain,Light Rain,0,2013-02-28 12:41:00
7:54 AM,42.1,37.0,82,29.65,10.0,Calm,Calm,-,0.00,Rain,Light Rain,0,2013-02-28 12:54:00
8:54 AM,42.1,37.9,85,29.65,7.0,Calm,Calm,-,0.01,Rain,Light Rain,0,2013-02-28 13:54:00
9:45 AM,42.8,33.8,70,29.64,10.0,Variable,5.8,-,0.01,Rain,Light Rain,0,2013-02-28 14:45:00
9:54 AM,42.1,34.0,73,29.65,10.0,West,5.8,-,0.01,,Overcast,280,2013-02-28 14:54:00
10:54 AM,45.0,34.0,65,29.62,10.0,Variable,4.6,-,0.00,,Overcast,0,2013-02-28 15:54:00
11:14 AM,44.6,33.8,66,29.62,10.0,WNW,5.8,-,N/A,,Overcast,290,2013-02-28 16:14:00
11:26 AM,44.6,33.8,66,29.61,10.0,WNW,4.6,-,N/A,,Overcast,290,2013-02-28 16:26:00
11:54 AM,45.0,30.9,58,29.61,10.0,West,8.1,-,N/A,,Overcast,270,2013-02-28 16:54:00
12:54 PM,46.0,28.9,51,29.59,10.0,West,4.6,-,N/A,,Overcast,280,2013-02-28 17:54:00
1:54 PM,46.0,28.0,50,29.59,10.0,West,10.4,-,N/A,,Overcast,260,2013-02-28 18:54:00
4:54 PM,45.0,24.1,44,29.59,10.0,NW,5.8,-,N/A,,Mostly Cloudy,310,2013-02-28 21:54:00
5:54 PM,45.0,25.0,46,29.60,10.0,West,8.1,-,N/A,,Overcast,270,2013-02-28 22:54:00
6:54 PM,43.0,28.9,58,29.62,10.0,NW,3.5,-,0.00,Rain,Light Rain,310,2013-02-28 23:54:00
7:54 PM,42.1,28.0,58,29.65,10.0,WNW,10.4,-,0.00,,Overcast,290,2013-03-01 00:54:00
8:54 PM,39.9,30.0,68,29.66,10.0,West,8.1,-,N/A,,Overcast,270,2013-03-01 01:54:00
10:54 PM,39.0,30.0,70,29.67,10.0,West,6.9,-,N/A,,Partly Cloudy,270,2013-03-01 03:54:00
11:54 PM,37.9,30.0,73,29.65,10.0,West,6.9,-,N/A,,Clear,270,2013-03-01 04:54:00